Madison, MN

12:16 PM CDT on March 30, 2017 (GMT -0500)
Madison-Lac Qui Parle County

Weather History for KDXX - April, 2014

Change the Weather History Date:

Thursday, April 10, 2014

  Actual Average (KAQP) Record (KAQP)
Temperature  
Mean Temperature 52 °F -  
Max Temperature 64 °F 49 °F 75 °F (2006)
Min Temperature 39 °F 29 °F 21 °F (2004)
Degree Days  
Heating Degree Days 14    
Growing Degree Days 2 (Base 50)    
Moisture  
Dew Point 30 °F    
Average Humidity 47    
Maximum Humidity 76    
Minimum Humidity 19    
Precipitation  
Precipitation 0.00 in - - ()
Sea Level Pressure  
Sea Level Pressure 29.84 in    
Wind  
Wind Speed 14 mph (WNW)    
Max Wind Speed 24 mph    
Max Gust Speed 33 mph    
Visibility 10 miles    
Events Rain    
Averages and records for this station are not official NWS values.
T = Trace of Precipitation, MM = Missing Value Source: NWS Daily Summary

Daily Weather History Graph

Daily Weather History Graph

Search for Another Location

Airport or City:

Trip Planner

Search our weather history database for the weather conditions in past years. The results will help you decide how hot, cold, wet, or windy it might be!

Date:

Astronomy

Apr. 10, 2014 Rise Set
Actual Time 6:48 AM CDT 8:03 PM CDT
Civil Twilight 6:18 AM CDT 8:34 PM CDT
Nautical Twilight 5:42 AM CDT 9:10 PM CDT
Astronomical Twilight 5:03 AM CDT 9:49 PM CDT
Moon 3:38 PM CDT (4/10) 4:23 AM CDT (4/10)
Length of Visible Light 14h 15m
Length of Day
13h 15m
Waxing Gibbous, 80% of the Moon is Illuminated
Apr 10
Waxing Gibbous
Apr 15
Full
Apr 22
Last Quarter
Apr 29
New
May 6
First Quarter

Hourly Weather History & Observations

Time (CDT) Temp. Windchill Dew Point Humidity Pressure Visibility Wind Dir Wind Speed Gust Speed Precip Events Conditions
12:13 AM 53.6 °F - 39.2 °F 58% 29.69 in 10.0 mi NNW 24.2 mph 28.8 mph N/A   Scattered Clouds
12:34 AM 53.6 °F - 39.2 °F 58% 29.70 in 10.0 mi NNW 19.6 mph - N/A   Scattered Clouds
12:54 AM 53.6 °F - 39.2 °F 58% 29.72 in 10.0 mi NNW 16.1 mph 20.7 mph N/A   Mostly Cloudy
1:13 AM 53.6 °F - 41.0 °F 62% 29.71 in 10.0 mi NNW 20.7 mph 26.5 mph N/A Rain Light Rain
1:34 AM 51.8 °F - 41.0 °F 67% 29.70 in 10.0 mi NNW 15.0 mph - N/A   Scattered Clouds
1:54 AM 51.8 °F - 41.0 °F 67% 29.76 in 10.0 mi NW 15.0 mph 19.6 mph N/A   Mostly Cloudy
2:13 AM 51.8 °F - 39.2 °F 62% 29.74 in 10.0 mi NW 8.1 mph - N/A   Scattered Clouds
2:34 AM 51.8 °F - 39.2 °F 62% 29.74 in 10.0 mi NW 9.2 mph - N/A   Clear
2:54 AM 50.0 °F - 37.4 °F 62% 29.72 in 10.0 mi NNW 9.2 mph - N/A   Clear
3:13 AM 48.2 °F - 35.6 °F 62% 29.75 in 10.0 mi NW 9.2 mph - N/A   Clear
3:34 AM 48.2 °F - 35.6 °F 62% 29.75 in 10.0 mi NW 9.2 mph - N/A   Clear
3:54 AM 46.4 °F 41.9 °F 35.6 °F 66% 29.76 in 10.0 mi NW 9.2 mph - N/A   Clear
4:13 AM 46.4 °F 41.9 °F 35.6 °F 66% 29.76 in 10.0 mi WNW 9.2 mph - N/A   Clear
4:34 AM 44.6 °F 39.7 °F 35.6 °F 71% 29.77 in 10.0 mi WNW 9.2 mph - N/A   Clear
4:54 AM 44.6 °F 39.7 °F 33.8 °F 66% 29.77 in 10.0 mi WNW 9.2 mph - N/A   Clear
5:13 AM 42.8 °F 38.0 °F 33.8 °F 70% 29.77 in 10.0 mi WNW 8.1 mph - N/A   Clear
5:34 AM 39.2 °F 33.6 °F 32.0 °F 75% 29.78 in 10.0 mi WNW 8.1 mph - N/A   Clear
5:54 AM 39.2 °F 34.2 °F 30.2 °F 70% 29.79 in 10.0 mi WNW 6.9 mph - N/A   Clear
6:13 AM 41.0 °F 35.2 °F 30.2 °F 65% 29.79 in 10.0 mi WNW 9.2 mph - N/A   Clear
6:34 AM 41.0 °F 35.2 °F 30.2 °F 65% 29.80 in 10.0 mi West 9.2 mph - N/A   Clear
6:54 AM 41.0 °F 35.2 °F 30.2 °F 65% 29.81 in 10.0 mi West 9.2 mph - N/A   Clear
7:13 AM 41.0 °F 35.2 °F 32.0 °F 70% 29.82 in 10.0 mi WNW 9.2 mph - N/A   Clear
7:34 AM 42.8 °F 37.5 °F 32.0 °F 66% 29.82 in 10.0 mi WNW 9.2 mph - N/A   Clear
7:54 AM 42.8 °F 37.5 °F 33.8 °F 70% 29.83 in 10.0 mi West 9.2 mph - N/A   Clear
8:13 AM 44.6 °F 38.8 °F 33.8 °F 66% 29.84 in 10.0 mi West 11.5 mph - N/A   Clear
8:34 AM 46.4 °F 41.1 °F 33.8 °F 62% 29.85 in 10.0 mi WNW 11.5 mph - N/A   Clear
8:54 AM 50.0 °F - 32.0 °F 50% 29.85 in 10.0 mi WNW 13.8 mph - N/A   Clear
9:13 AM 53.6 °F - 32.0 °F 44% 29.85 in 10.0 mi WNW 17.3 mph 24.2 mph N/A   Clear
9:34 AM 53.6 °F - 30.2 °F 41% 29.86 in 10.0 mi WNW 13.8 mph 19.6 mph N/A   Clear
9:54 AM 53.6 °F - 28.4 °F 38% 29.86 in 10.0 mi WNW 18.4 mph 25.3 mph N/A   Clear
10:13 AM 55.4 °F - 28.4 °F 36% 29.86 in 10.0 mi NW 18.4 mph 25.3 mph N/A   Clear
10:34 AM 55.4 °F - 28.4 °F 36% 29.87 in 10.0 mi WNW 16.1 mph - N/A   Clear
10:54 AM 57.2 °F - 28.4 °F 33% 29.88 in 10.0 mi WNW 18.4 mph 24.2 mph N/A   Clear
11:13 AM 57.2 °F - 28.4 °F 33% 29.88 in 10.0 mi NW 15.0 mph 21.9 mph N/A   Clear
11:34 AM 59.0 °F - 24.8 °F 27% 29.89 in 4.0 mi NW 18.4 mph 24.2 mph N/A   Haze
11:54 AM 60.8 °F - 26.6 °F 27% 29.88 in 10.0 mi NW 16.1 mph 23.0 mph N/A   Clear
12:13 PM 60.8 °F - 24.8 °F 25% 29.88 in 10.0 mi WNW 21.9 mph 28.8 mph N/A   Clear
12:34 PM 60.8 °F - 23.0 °F 23% 29.89 in 10.0 mi NW 21.9 mph 33.4 mph N/A   Clear
12:54 PM 60.8 °F - 24.8 °F 25% 29.89 in 10.0 mi NW 20.7 mph 31.1 mph N/A   Clear
1:13 PM 62.6 °F - 24.8 °F 24% 29.88 in 10.0 mi NW 20.7 mph 27.6 mph N/A   Clear
1:34 PM 62.6 °F - 24.8 °F 24% 29.88 in 10.0 mi NW 18.4 mph 27.6 mph N/A   Clear
1:54 PM 62.6 °F - 23.0 °F 22% 29.88 in 10.0 mi WNW 21.9 mph 26.5 mph N/A   Clear
2:13 PM 62.6 °F - 21.2 °F 20% 29.88 in 10.0 mi WNW 20.7 mph 31.1 mph N/A   Clear
2:34 PM 62.6 °F - 21.2 °F 20% 29.88 in 10.0 mi WNW 19.6 mph 31.1 mph N/A   Clear
2:54 PM 64.4 °F - 24.8 °F 22% 29.88 in 10.0 mi NW 18.4 mph 29.9 mph N/A   Clear
3:13 PM 64.4 °F - 23.0 °F 21% 29.87 in 10.0 mi NW 18.4 mph 25.3 mph N/A   Clear
3:34 PM 64.4 °F - 23.0 °F 21% 29.87 in 10.0 mi NW 20.7 mph 33.4 mph N/A   Clear
3:54 PM 62.6 °F - 21.2 °F 20% 29.87 in 10.0 mi NW 23.0 mph 27.6 mph N/A   Clear
4:13 PM 62.6 °F - 23.0 °F 22% 29.87 in 10.0 mi NW 20.7 mph 26.5 mph N/A   Clear
4:34 PM 62.6 °F - 21.2 °F 20% 29.87 in 10.0 mi WNW 13.8 mph 25.3 mph N/A   Clear
4:53 PM 64.4 °F - 21.2 °F 19% 29.87 in 10.0 mi WNW 17.3 mph 24.2 mph N/A   Clear
5:14 PM 62.6 °F - 21.2 °F 20% 29.88 in 10.0 mi NW 18.4 mph 26.5 mph N/A   Clear
5:34 PM 62.6 °F - 24.8 °F 24% 29.88 in 10.0 mi NW 18.4 mph 25.3 mph N/A   Clear
5:53 PM 62.6 °F - 24.8 °F 24% 29.89 in 10.0 mi WNW 13.8 mph 26.5 mph N/A   Clear
6:14 PM 60.8 °F - 24.8 °F 25% 29.88 in 10.0 mi WNW 13.8 mph 18.4 mph N/A   Clear
6:34 PM 60.8 °F - 23.0 °F 23% 29.88 in 10.0 mi WNW 12.7 mph - N/A   Clear
6:53 PM 59.0 °F - 26.6 °F 29% 29.89 in 10.0 mi WNW 8.1 mph - N/A   Clear
7:14 PM 57.2 °F - 28.4 °F 33% 29.89 in 10.0 mi WNW 8.1 mph - N/A   Clear
7:34 PM 55.4 °F - 30.2 °F 38% 29.89 in 10.0 mi West 6.9 mph - N/A   Clear
7:53 PM 51.8 °F - 35.6 °F 54% 29.89 in 10.0 mi NNW 4.6 mph - N/A   Clear
8:14 PM 53.6 °F - 30.2 °F 41% 29.89 in 10.0 mi Calm Calm - N/A   Clear
8:53 PM 48.2 °F - 33.8 °F 58% 29.90 in 10.0 mi SW 5.8 mph - N/A   Clear
9:14 PM 46.4 °F 43.5 °F 33.8 °F 62% 29.91 in 10.0 mi SW 5.8 mph - N/A   Clear
9:34 PM 48.2 °F - 32.0 °F 54% 29.91 in 10.0 mi SW 3.5 mph - N/A   Clear
9:54 PM 46.4 °F 42.9 °F 32.0 °F 57% 29.91 in 10.0 mi SSW 6.9 mph - N/A   Clear
10:14 PM 42.8 °F 38.6 °F 33.8 °F 70% 29.91 in 10.0 mi SSW 6.9 mph - N/A   Clear
10:34 PM 46.4 °F 43.5 °F 32.0 °F 57% 29.91 in 10.0 mi SW 5.8 mph - N/A   Clear
10:54 PM 44.6 °F - 32.0 °F 61% 29.91 in 10.0 mi Calm Calm - N/A   Scattered Clouds
11:14 PM 42.8 °F - 33.8 °F 70% 29.91 in 10.0 mi Calm Calm - N/A   Scattered Clouds
11:34 PM 41.0 °F - 33.8 °F 76% 29.91 in 10.0 mi Calm Calm - N/A   Scattered Clouds
11:54 PM 42.8 °F - 33.8 °F 70% 29.91 in 10.0 mi Calm Calm - N/A   Mostly Cloudy